Location: Newark
(40.9833°N, 0.0333°W)
Time: 02:12:37
(UTC+00:00)

deb Explorer IX - Pass Details

Date: 02 November 2020
Orbit: 537 x 1105 km, 38.8° (Epoch: 02 December)

Event Time Altitude Azimuth Distance (km) Brightness Sun altitude
Rises 06:47:14 0° 274° (W) 3,376 ? 1.8°
Reaches altitude 10° 06:49:37 10° 272° (W) 2,525 ? 2.2°
Maximum altitude 06:55:41 65° 191° (S) 1,059 ? 3.2°
Drops below altitude 10° 07:02:37 10° 111° (ESE) 2,871 ? 4.4°
Sets 07:05:29 0° 109° (ESE) 3,869 ? 4.9°
